Fresno, CA

2:18 AM PST on November 15, 2019 (GMT -0800)
Fresno Yosemite International

Weather History for KFAT - September, 2019

Change the Weather History Date:

Sunday, September 22, 2019

  Actual Average Record
Temperature  
Mean Temperature 77 °F 75 °F  
Max Temperature 93 °F 89 °F 104 °F (1949)
Min Temperature 61 °F 60 °F 41 °F (1968)
Degree Days  
Heating Degree Days 0    
Month to date heating degree days 0  
Since 1 July heating degree days 0  
Cooling Degree Days 12    
Month to date cooling degree days 305  
Year to date cooling degree days 2246  
Growing Degree Days 27 (Base 50)    
Moisture  
Dew Point 46 °F    
Average Humidity 37    
Maximum Humidity 60    
Minimum Humidity 14    
Precipitation  
Precipitation 0.00 in 0.01 in 0.47 in (1887)
Month to date precipitation 0.00 0.10  
Year to date precipitation 9.52 7.96  
Snow  
Snow 0.00 in - - ()
Month to date snowfall 0.0  
Since 1 July snowfall 0.0  
Since 1 September snowfall 0.0  
Snow Depth 0.00 in    
Sea Level Pressure  
Sea Level Pressure 29.88 in    
Wind  
Wind Speed 4 mph (WSW)    
Max Wind Speed 9 mph    
Max Gust Speed 12 mph    
Visibility 10 miles    
Events      
T = Trace of Precipitation, MM = Missing Value Source: NWS Daily Summary

Daily Weather History Graph

Daily Weather History Graph

Search for Another Location

Airport or City:

Astronomy

Sep. 22, 2019 Rise Set
Actual Time 6:46 AM PDT 6:55 PM PDT
Civil Twilight 6:20 AM PDT 7:21 PM PDT
Nautical Twilight 5:50 AM PDT 7:51 PM PDT
Astronomical Twilight 5:19 AM PDT 8:22 PM PDT
Moon No Moon Rise 2:46 PM PDT (9/22)
Length of Visible Light 13h 00m
Length of Day
12h 09m
Last Quarter, 43% of the Moon is Illuminated
Sep 22
Last Quarter
Sep 28
New
Oct 5
First Quarter
Oct 13
Full
Oct 21
Last Quarter

Hourly Weather History & Observations

Time (PDT) Temp. Dew Point Humidity Pressure Visibility Wind Dir Wind Speed Gust Speed Precip Events Conditions
12:53 AM 69.1 °F 50.0 °F 51% 29.90 in 10.0 mi Calm Calm - N/A   Clear
1:53 AM 66.9 °F 48.9 °F 52% 29.91 in 10.0 mi Calm Calm - N/A   Clear
2:53 AM 64.9 °F 50.0 °F 58% 29.90 in 10.0 mi Calm Calm - N/A   Clear
3:53 AM 64.0 °F 48.9 °F 58% 29.89 in 10.0 mi Calm Calm - N/A   Clear
4:53 AM 63.0 °F 46.0 °F 54% 29.90 in 10.0 mi ESE 3.5 mph - N/A   Clear
5:53 AM 62.1 °F 46.9 °F 58% 29.91 in 10.0 mi Calm Calm - N/A   Clear
6:53 AM 62.1 °F 48.0 °F 60% 29.92 in 10.0 mi ESE 4.6 mph - N/A   Partly Cloudy
8:53 AM 69.1 °F 48.9 °F 49% 29.94 in 10.0 mi ESE 5.8 mph - N/A   Clear
9:53 AM 73.9 °F 48.9 °F 41% 29.95 in 10.0 mi SE 4.6 mph - N/A   Clear
10:53 AM 79.0 °F 48.9 °F 35% 29.94 in 10.0 mi Variable 3.5 mph - N/A   Partly Cloudy
11:53 AM 82.9 °F 48.0 °F 29% 29.91 in 10.0 mi SSE 4.6 mph - N/A   Partly Cloudy
12:53 PM 86.0 °F 45.0 °F 24% 29.90 in 10.0 mi West 4.6 mph - N/A   Partly Cloudy
1:53 PM 90.0 °F 44.1 °F 20% 29.88 in 10.0 mi SW 5.8 mph - N/A   Partly Cloudy
2:53 PM 91.0 °F 44.1 °F 20% 29.85 in 10.0 mi SW 5.8 mph - N/A   Partly Cloudy
3:53 PM 91.9 °F 41.0 °F 17% 29.84 in 10.0 mi SSW 4.6 mph - N/A   Scattered Clouds
4:53 PM 91.0 °F 36.0 °F 14% 29.83 in 10.0 mi WNW 3.5 mph - N/A   Scattered Clouds
5:53 PM 91.9 °F 37.0 °F 15% 29.83 in 10.0 mi Variable 3.5 mph - N/A   Mostly Cloudy
6:53 PM 88.0 °F 45.0 °F 22% 29.83 in 10.0 mi NW 6.9 mph - N/A   Mostly Cloudy
7:53 PM 84.9 °F 45.0 °F 25% 29.84 in 10.0 mi NW 5.8 mph - N/A   Scattered Clouds
8:53 PM 82.0 °F 48.9 °F 31% 29.86 in 10.0 mi NNW 3.5 mph - N/A   Partly Cloudy
9:53 PM 79.0 °F 46.9 °F 32% 29.86 in 10.0 mi NW 4.6 mph - N/A   Scattered Clouds
10:53 PM 75.9 °F 46.9 °F 36% 29.87 in 10.0 mi Calm Calm - N/A   Mostly Cloudy
11:53 PM 75.0 °F 48.0 °F 38% 29.86 in 10.0 mi NW 4.6 mph - N/A   Scattered Clouds